[[{"header":{"parameterUnit":"m.s-1","parameterCategory":1,"la1":30.2991,"la2":30.254,"lo1":-89.0895,"lo2":-89.0444,"dx":0.0017,"dy":0.0017,"nx":28,"ny":28,"refTime":"2023-02-12T09:00:00:Z","depth":0,"parameterNumber":2,"parameterNumberName":"U-component_of_WINDS"},"data":[0,0,0,0,0,0,0,0,0,0,0,0,0,0,0,0,0,0,0,0,0,0,0,0,0,0,0,0,0,0,0,0,0,0,0,0,0,0,0,0,0,0,0,0,0,0,0,0,0,0,0,0,0,0,0,0,0,0,-0.7078,-0.7078,0,-0.7054,-0.7054,-0.7054,-0.7042,-0.7042,-0.7042,-0.7042,-0.7019,-0.7018,-0.7018,0,0,0,0,0,0,0,0,0,0,0,0,0,-0.7116,-0.7115,-0.7078,-0.7078,-0.7077,-0.7054,-0.7054,-0.7054,-0.7042,-0.7042,-0.7042,-0.7042,-0.7019,-0.7018,-0.7018,0,0,0,0,0,0,0,0,0,0,0,0,0,-0.7096,-0.7115,-0.7078,-0.7069,-0.7068,-0.7054,-0.7054,-0.7053,-0.7042,-0.7042,-0.7042,-0.7042,-0.7019,-0.7018,-0.7018,-0.7012,0,0,-0.7015,-0.7014,0,0,0,0,0,0,0,0,-0.7098,-0.7095,-0.707,-0.7069,-0.7068,-0.7051,-0.7059,-0.704,-0.7042,-0.7052,-0.7042,-0.7042,-0.703,-0.7028,-0.7023,-0.7011,-0.701,-0.7015,-0.7014,-0.7014,-0.7013,0,0,0,0,0,0,0,-0.7099,-0.7096,-0.7069,-0.707,-0.7069,-0.7067,-0.7064,-0.7055,-0.7041,-0.7051,-0.705,-0.7047,-0.7029,-0.7024,-0.7023,-0.701,-0.7015,-0.7014,-0.7013,-0.7013,-0.6993,-0.6993,0,0,0,0,0,0,-0.7102,-0.7097,-0.7069,-0.7068,-0.7083,-0.7066,-0.7063,-0.7057,-0.7041,-0.7039,-0.7047,-0.7047,-0.7026,-0.7024,-0.7022,-0.7015,-0.7014,-0.7013,-0.7012,-0.6993,-0.6993,-0.6993,0,0,0,0,0,0,-0.7102,-0.7099,-0.707,-0.7082,-0.7078,-0.7065,-0.7058,-0.7056,-0.7051,-0.7038,-0.7036,-0.7045,-0.7026,-0.7023,-0.7015,-0.7014,-0.7012,-0.7012,-0.6993,-0.6993,-0.6993,-0.7001,0,0,0,0,0,0,-0.7103,-0.7099,-0.7097,-0.7082,-0.7078,-0.7063,-0.7058,-0.7056,-0.705,-0.7049,-0.7036,-0.7033,-0.7026,-0.7016,-0.7014,-0.7013,-0.7011,-0.6993,-0.6993,-0.6993,-0.7001,-0.7001,-0.7002,0,0,0,0,0,-0.7105,-0.71,-0.7097,-0.7093,-0.7074,-0.7063,-0.706,-0.7051,-0.705,-0.7047,-0.7039,-0.7034,-0.7015,-0.7015,-0.7013,-0.7011,-0.6993,-0.6993,-0.6993,-0.7001,-0.7001,-0.7002,0,0,0,0,0,0,-0.7115,-0.7098,-0.7094,-0.7084,-0.7075,-0.7061,-0.7057,-0.7052,-0.7043,-0.7043,-0.7033,-0.703,-0.7022,-0.7016,-0.7017,-0.7006,-0.7003,-0.7003,-0.701,-0.7011,-0.7011,-0.7013,-0.701,0,0,0,0,0,-0.7116,-0.7108,-0.7094,-0.7086,-0.7082,-0.7071,-0.7065,-0.7059,-0.7049,-0.7046,-0.7037,-0.7028,-0.702,-0.7015,-0.7007,-0.7,-0.6997,-0.6998,-0.6999,-0.6999,-0.6999,-0.6995,-0.6996,-0.6993,-0.6993,-0.6993,0,0,-0.7118,-0.7108,-0.7103,-0.7088,-0.708,-0.7073,-0.7067,-0.7059,-0.7054,-0.7044,-0.7036,-0.7029,-0.7019,-0.7011,-0.7008,-0.7006,-0.6999,-0.6999,-0.7,-0.6999,-0.6995,-0.6996,-0.6996,-0.6993,-0.6993,-0.6993,0,0,-0.7118,-0.7109,-0.7103,-0.7095,-0.7083,-0.7076,-0.7074,-0.7061,-0.7056,-0.7047,-0.704,-0.7034,-0.7021,-0.7014,-0.7009,-0.7007,-0.7003,-0.7005,-0.7008,-0.7005,-0.7005,-0.7005,-0.7005,-0.7005,-0.7005,-0.7005,-0.7005,0,-0.7122,-0.711,-0.71,-0.7093,-0.7087,-0.7078,-0.7072,-0.7065,-0.7051,-0.7048,-0.7046,-0.7029,-0.7022,-0.7013,-0.7013,-0.7008,-0.7007,-0.7006,-0.7006,-0.7006,-0.7006,-0.7006,-0.7006,-0.7005,-0.7005,-0.7005,-0.7005,0,-0.7116,-0.7108,-0.7104,-0.7091,-0.7085,-0.7078,-0.7068,-0.7063,-0.7058,-0.7051,-0.7042,-0.7033,-0.7023,-0.7021,-0.7015,-0.7011,-0.7011,-0.7008,-0.7005,-0.7007,-0.7007,-0.7006,-0.7006,-0.7006,-0.7006,-0.7005,0,0,-0.7121,-0.7103,-0.7102,-0.7096,-0.7083,-0.7077,-0.7071,-0.7061,-0.7057,-0.7048,-0.7043,-0.7032,-0.7029,-0.7023,-0.7017,-0.7015,-0.7015,-0.7012,-0.7012,-0.7013,-0.7011,-0.7014,-0.7014,-0.7012,-0.7012,-0.7012,-0.7012,0,-0.712,-0.7107,-0.7098,-0.7089,-0.7082,-0.7074,-0.7068,-0.706,-0.7054,-0.7047,-0.704,-0.7033,-0.703,-0.7026,-0.7023,-0.7016,-0.7015,-0.7016,-0.7008,-0.7008,-0.7011,-0.7014,-0.7016,-0.7017,-0.7012,-0.7012,-0.7012,0,-0.7116,-0.7107,-0.7097,-0.7086,-0.7082,-0.7077,-0.7068,-0.7062,-0.7053,-0.7049,-0.7043,-0.7037,-0.7031,-0.7028,-0.702,-0.7021,-0.7017,-0.7013,-0.7013,-0.7012,-0.701,-0.7013,-0.7017,-0.7017,-0.7012,-0.7012,-0.7012,0,-0.7121,-0.7107,-0.7099,-0.7095,-0.7081,-0.7078,-0.7072,-0.7063,-0.7058,-0.7051,-0.7048,-0.7039,-0.7035,-0.7029,-0.7022,-0.7021,-0.7015,-0.7011,-0.7011,-0.7012,-0.701,-0.701,-0.7014,-0.7008,-0.7008,-0.7008,-0.7008,0,-0.712,-0.7114,-0.7102,-0.7097,-0.7091,-0.7082,-0.7076,-0.707,-0.7062,-0.7057,-0.705,-0.7045,-0.7035,-0.703,-0.7024,-0.7018,-0.7016,-0.7013,-0.7011,-0.7014,-0.7014,-0.7011,-0.7011,-0.7008,-0.7008,-0.7008,-0.7008,0,-0.7125,-0.7116,-0.7107,-0.7095,-0.7092,-0.7088,-0.7078,-0.7074,-0.7068,-0.7061,-0.7059,-0.7049,-0.7042,-0.7034,-0.7025,-0.7021,-0.7016,-0.7013,-0.7019,-0.7018,-0.7018,-0.7019,-0.702,-0.702,-0.7014,-0.7014,-0.7014,0,-0.7125,-0.712,-0.7108,-0.7104,-0.7098,-0.7091,-0.7086,-0.7078,-0.7073,-0.7063,-0.706,-0.7053,-0.7046,-0.7036,-0.7028,-0.7021,-0.7019,-0.702,-0.7018,-0.702,-0.7019,-0.702,-0.702,-0.702,-0.702,-0.7021,-0.7021,0,-0.7126,-0.7122,-0.7115,-0.7107,-0.7101,-0.7094,-0.7087,-0.7084,-0.7074,-0.7069,-0.7062,-0.7057,-0.7047,-0.704,-0.7032,-0.7027,-0.7023,-0.7021,-0.7021,-0.7023,-0.7027,-0.7025,-0.7021,-0.7021,-0.7021,-0.7021,-0.7021,-0.7021,-0.7129,-0.7125,-0.7116,-0.7108,-0.7102,-0.7096,-0.7091,-0.7084,-0.7078,-0.707,-0.7065,-0.7058,-0.705,-0.7039,-0.7035,-0.703,-0.7028,-0.7027,-0.7027,-0.7027,-0.7028,-0.7027,-0.7028,-0.7028,-0.7028,-0.7028,-0.7028,0,-0.713,-0.7124,-0.7117,-0.7107,-0.7102,-0.7098,-0.709,-0.7086,-0.708,-0.7073,-0.7067,-0.7059,-0.7052,-0.7045,-0.7038,-0.7035,-0.7033,-0.7034,-0.7034,-0.7033,-0.703,-0.7031,-0.7036,-0.7036,-0.7036,-0.7036,-0.7036,-0.7036,-0.713,-0.7123,-0.7118,-0.7109,-0.7103,-0.7096,-0.7092,-0.7087,-0.7081,-0.7073,-0.7067,-0.7062,-0.7055,-0.7048,-0.7042,-0.704,-0.7038,-0.7039,-0.7037,-0.7034,-0.7033,-0.7033,-0.7034,-0.7039,-0.7039,-0.7041,-0.7041,-0.7041]},{"header":{"parameterUnit":"m.s-1","parameterCategory":1,"la1":30.2991,"la2":30.254,"lo1":-89.0895,"lo2":-89.0444,"dx":0.0017,"dy":0.0017,"nx":28,"ny":28,"refTime":"2023-02-12T09:00:00:Z","depth":0,"parameterNumber":3,"parameterNumberName":"V-component_of_WINDS"},"data":[0,0,0,0,0,0,0,0,0,0,0,0,0,0,0,0,0,0,0,0,0,0,0,0,0,0,0,0,0,0,0,0,0,0,0,0,0,0,0,0,0,0,0,0,0,0,0,0,0,0,0,0,0,0,0,0,0,0,2.8632,2.8633,0,2.8727,2.8728,2.8729,2.871,2.8709,2.8707,2.8705,2.8797,2.88,2.8804,0,0,0,0,0,0,0,0,0,0,0,0,0,2.8429,2.8432,2.8632,2.8633,2.8635,2.8727,2.8728,2.8729,2.8711,2.8709,2.8707,2.8705,2.8795,2.88,2.8805,0,0,0,0,0,0,0,0,0,0,0,0,0,2.8519,2.8434,2.8632,2.8637,2.8638,2.8727,2.8728,2.873,2.8711,2.8709,2.8706,2.8704,2.8794,2.88,2.8805,2.8894,0,0,2.8824,2.8826,0,0,0,0,0,0,0,0,2.8514,2.8527,2.8635,2.8636,2.8638,2.8704,2.869,2.8784,2.8712,2.8683,2.8705,2.8702,2.8768,2.8776,2.8799,2.8898,2.8902,2.8824,2.8828,2.8831,2.8832,0,0,0,0,0,0,0,2.8508,2.8523,2.867,2.8636,2.8638,2.8632,2.8642,2.8708,2.8738,2.8686,2.8684,2.8696,2.8768,2.8793,2.8801,2.8903,2.8824,2.883,2.8833,2.8836,2.9077,2.908,0,0,0,0,0,0,2.8501,2.8518,2.8667,2.8672,2.8569,2.8637,2.8649,2.8686,2.8738,2.8743,2.8698,2.8695,2.8784,2.8794,2.8804,2.8909,2.8831,2.8836,2.884,2.9074,2.9078,2.9081,0,0,0,0,0,0,2.8497,2.8515,2.8663,2.8595,2.8613,2.8644,2.8685,2.8689,2.8714,2.8747,2.8752,2.8719,2.8782,2.8795,2.8871,2.8912,2.8839,2.8844,2.9071,2.9075,2.9079,2.9122,0,0,0,0,0,0,2.8491,2.8513,2.8549,2.8596,2.8617,2.8731,2.8688,2.8693,2.8725,2.8722,2.8768,2.8773,2.8781,2.8863,2.8877,2.8919,2.8849,2.9067,2.9073,2.9078,2.9117,2.9127,2.9136,0,0,0,0,0,2.8484,2.8556,2.8551,2.8569,2.8662,2.8733,2.8745,2.8755,2.8729,2.8763,2.8784,2.8771,2.8906,2.8871,2.8887,2.8931,2.9065,2.9071,2.9078,2.9113,2.9125,2.9136,0,0,0,0,0,0,2.8511,2.8562,2.8557,2.8647,2.8686,2.873,2.8774,2.8768,2.8814,2.8809,2.8817,2.8828,2.8905,2.8926,2.8886,2.9018,2.8981,2.8991,2.9002,2.9014,2.9023,2.9016,2.8854,0,0,0,0,0,2.8528,2.8584,2.8624,2.87,2.872,2.8744,2.8775,2.878,2.882,2.8836,2.8862,2.89,2.895,2.8983,2.9032,2.912,2.9128,2.9158,2.9168,2.9175,2.9183,2.923,2.9243,2.9102,2.9101,2.9101,0,0,2.8563,2.8597,2.8632,2.8706,2.8737,2.8792,2.8758,2.8818,2.8858,2.8844,2.8918,2.8939,2.8981,2.9063,2.9101,2.9083,2.9224,2.9183,2.9189,2.9193,2.9238,2.9251,2.9263,2.9106,2.9105,2.9104,0,0,2.8654,2.8687,2.8753,2.8785,2.8832,2.8848,2.8863,2.8908,2.8922,2.8997,2.8987,2.9033,2.9121,2.9151,2.9178,2.928,2.9269,2.9295,2.9344,2.9389,2.94,2.941,2.9445,2.9457,2.9303,2.9303,2.9303,0,2.8691,2.8776,2.8787,2.8848,2.888,2.8871,2.8937,2.8966,2.9026,2.9048,2.9027,2.9136,2.9164,2.9252,2.9277,2.9299,2.9316,2.929,2.9398,2.9408,2.9417,2.945,2.9464,2.9306,2.9306,2.9305,2.9305,0,2.8818,2.8876,2.8923,2.8984,2.9021,2.9084,2.9102,2.9138,2.9139,2.9155,2.923,2.9263,2.9318,2.9339,2.934,2.9427,2.9414,2.9396,2.9358,2.9433,2.9464,2.9477,2.931,2.9309,2.9308,2.9307,0,0,2.8929,2.8995,2.9012,2.9039,2.909,2.9135,2.9196,2.9251,2.9281,2.9322,2.9372,2.9446,2.9429,2.9459,2.9463,2.9502,2.9579,2.9479,2.948,2.9495,2.9675,2.9688,2.9703,2.9572,2.9575,2.9577,2.9671,0,2.9025,2.9136,2.9147,2.9245,2.9298,2.929,2.9343,2.9379,2.9396,2.9441,2.9459,2.9511,2.9485,2.9503,2.9542,2.9562,2.9615,2.9555,2.9617,2.9619,2.9606,2.972,2.9735,2.9822,2.9684,2.9686,2.9687,0,2.9152,2.9199,2.9302,2.9345,2.9368,2.9416,2.9466,2.9511,2.955,2.9559,2.9593,2.9591,2.9652,2.9613,2.9695,2.9654,2.9679,2.9693,2.9696,2.9702,2.9657,2.9728,2.9851,2.9864,2.9707,2.9705,2.9704,0,2.9222,2.931,2.9384,2.9407,2.9459,2.9493,2.9515,2.9553,2.9584,2.9628,2.9648,2.9697,2.9723,2.976,2.9771,2.9741,2.9852,2.9814,2.986,2.9859,2.9883,2.9881,3.0011,2.9901,2.9901,2.9901,2.99,0,2.9327,2.9391,2.9416,2.9461,2.9531,2.9542,2.961,2.9631,2.9664,2.9711,2.9706,2.975,2.9761,2.9806,2.9815,2.9881,2.9893,2.99,2.9902,2.9901,2.99,2.9917,2.9911,2.9904,2.9903,2.9903,2.9902,0,2.9417,2.9437,2.9516,2.9559,2.9571,2.9621,2.9657,2.9699,2.9714,2.9774,2.9788,2.9812,2.9865,2.9879,2.9942,2.9947,3.0025,3.0021,3.0012,3.0012,3.0057,3.0052,3.0202,3.0221,3.0099,3.01,3.0101,0,2.9483,2.9532,2.9581,2.9613,2.9638,2.9689,2.9722,2.9733,2.9767,2.9815,2.9851,2.9903,2.9946,3.003,3.0052,3.0099,3.0096,3.0145,3.0103,3.01,3.0095,3.0092,3.0096,3.0153,3.0154,3.0155,3.0156,0,2.9598,2.9605,2.9653,2.9705,2.9745,2.9785,2.9824,2.985,2.9866,2.9904,2.9959,2.9992,3.0057,3.0108,3.0156,3.0176,3.0169,3.0169,3.0182,3.0181,3.0174,3.0178,3.0033,3.0166,3.0165,3.0164,3.0163,3.0163,2.9677,2.972,2.9761,2.9814,2.9845,2.9881,2.9923,2.9944,2.999,3.0045,3.0048,3.0107,3.0143,3.0207,3.023,3.0275,3.026,3.0279,3.0283,3.0288,3.0291,3.0167,3.0283,3.0283,3.0283,3.0283,3.0283,0,2.9791,2.9817,2.9866,2.9921,2.9962,2.9953,2.9995,3.003,3.0082,3.0118,3.016,3.0222,3.0271,3.0296,3.0345,3.0376,3.0373,3.0388,3.0385,3.039,3.0302,3.0286,3.0389,3.0389,3.0389,3.0389,3.0389,3.0389,2.9855,2.9926,2.9938,3.0023,3.0047,3.0107,3.0131,3.0164,3.0192,3.0262,3.0304,3.032,3.0351,3.0401,3.0446,3.0451,3.0469,3.0486,3.0489,3.0407,3.0396,3.0386,3.0371,3.049,3.049,3.0573,3.0574,3.0575]}]]